Skip Page Navigation
NASA JPL Caltech
NASA Logo - Jet Propulsion Laboratory + View the NASA Portal
+ Center for Near-Earth Object Studies
JPL Home Earth Solar System Stars & Galaxies Technology
JPL Solar System Dynamics
BODIES ORBITS EPHEMERIDES TOOLS PHYSICAL DATA DISCOVERY FAQ SITE MAP
IMPORTANT: The SSD Announcement email list is now available. Major changes are coming in the near future, including possible hostname and/or URL changes. To be notified of such changes, subscribe to this email list.

Please visit this page for more details.


JPL Small-Body Database Browser
Search: [ help ]  
392031 (2009 BL35)
Classification: Main-belt Asteroid          SPK-ID: 2392031
Ephemeris | Orbit Diagram | Orbital Elements | Mission Design | Physical Parameters | Discovery Circumstances | Close-Approach Data ]

[ hide orbit diagram ]

For accurate long-term ephemerides, please instead use our Horizons system.This orbit viewer was implemented using two-body methods, and hence should not be used for determining accurate long-term trajectories (over several years or decades) or planetary encounter circumstances.


[ revert to old Java-based viewer ]

Orbital Elements at Epoch 2458600.5 (2019-Apr-27.0) TDB
Reference: JPL 11 (heliocentric ecliptic J2000)
 Element Value Uncertainty (1-sigma)   Units 
e .05435725840999155 9.4211e-08  
a 2.725986491548425 3.7266e-08 au
q 2.577809339405181 2.6231e-07 au
i 5.940170030502842 9.5359e-06 deg
node 340.5429989612601 7.3293e-05 deg
peri 33.67578791017561 9.5254e-05 deg
M 213.8000971781645 6.2713e-05 deg
tp 2459268.118802017656
(2021-Feb-22.61880202)
0.00029075 TDB
period 1643.932479348133
4.50
3.3711e-05
9.23e-08
d
yr
n .2189870961992007 4.4906e-09 deg/d
Q 2.874163643691669 3.9292e-08 au
  Orbit Determination Parameters
   # obs. used (total)      99  
   data-arc span      5614 days (15.37 yr)  
   first obs. used      2004-01-18  
   last obs. used      2019-06-02  
   planetary ephem.      DE431  
   SB-pert. ephem.      SB431-N16  
   condition code      0  
   norm. resid. RMS      .67319  
   source      ORB  
   producer      Otto Matic  
   solution date      2019-Sep-24 07:08:25  

Additional Information
 Earth MOID = 1.57866 au 
 Jupiter MOID = 2.38778 au 
 T_jup = 3.347 
[ show covariance matrix ]

Ephemeris | Orbit Diagram | Orbital Elements | Mission Design | Physical Parameters | Discovery Circumstances | Close-Approach Data ]

Physical Parameter Table
Parameter Symbol Value Units Sigma Reference Notes
absolute magnitude H 16.8   n/a MPO437604  

392031 (2009 BL35)          Discovered 2009-Jan-16 by Spacewatch at Kitt Peak
Reference: Last Updated: 2014-04-17

[ show close-approach data ]
Alternate Designations
 2009 BL35 = 2007 TQ370 
Ephemeris | Orbit Diagram | Orbital Elements | Mission Design | Physical Parameters | Discovery Circumstances | Close-Approach Data ]
ABOUT SSD CREDITS/AWARDS PRIVACY/COPYRIGHT GLOSSARY LINKS
FirstGov 2019-Dec-16 11:26 UT
(server date/time)  
NASA Home Page
Site Manager:   Ryan S. Park
Webmaster  Alan B. Chamberlin